Flag for Germany Weather past 2 weeks in Ellwangen (Jagst), Baden-Württemberg, Germany

Now
51 °F

Overcast.


Feels Like: 51 °F
Forecast: 47 / 64 °F
Wind: 3 mph from Northwest

Location: Stoetten

Current Time: Sep 1, 2014 at 8:52:11 PM

Latest Report: Sep 1, 2014 at 8:00 PM


Visibility: 13 mi

Pressure: 30.16 "Hg

Humidity: 94%

Dew point: 50 °F

Location of Ellwangen (Jagst)Location

Historic Weather in Ellwangen (Jagst) — Graph

°F

Ellwangen (Jagst) temperature yesterday

Maximum temperature yesterday: 59 °F (at 12:00 AM)
Minimum temperature yesterday: 49 °F (at 5:00 PM)
Average temperature yesterday: 54 °F

Past Weeks' High & Low Weather Summary

 TemperatureHumidityPressure
High68 °F (Aug 28, 6:00 PM)100% (Aug 24, 5:00 AM)30.16 "Hg (Aug 24, 5:00 AM)
Low44 °F (Aug 24, 3:00 AM)46% (Aug 21, 2:00 PM)29.69 "Hg (Aug 26, 8:00 AM)
Average55 °F81%29.99 "Hg
* Reported Aug 17 7:00 PM — Sep 1 7:00 PM, Ellwangen (Jagst), Weather by CustomWeather, © 2014

Note: Actual official high and low records may vary slightly from our data, if they occured in-between our weather recording intervals... More about our weather records

Advertising

Ellwangen (Jagst) weather history for previous 24 hours

 ConditionsComfort  
Time TempWeatherWind HumidityBarometerVisibility
7:00 PM
Sep 1
52 °FOvercast.3 mph91%30.15 "Hg12 mi
6:00 PM53 °FOvercast.3 mph93%30.15 "Hg11 mi
5:00 PM51 °FLight rain. Low clouds.3 mph93%30.16 "Hg11 mi
4:00 PM53 °FLow clouds.3 mph87%30.15 "Hg11 mi
3:00 PM52 °FLow clouds.2 mph92%30.15 "Hg7 mi
2:00 PM51 °FLow clouds.3 mph96%30.15 "Hg4 mi
1:00 PM49 °FLight rain. Low clouds.5 mph98%30.16 "Hg2 mi
12:00 PM50 °FLow clouds.5 mph95%30.14 "Hg4 mi
11:00 AM51 °FLow clouds.6 mph97%30.13 "Hg3 mi
10:00 AM48 °FLight rain. Low clouds.5 mph98%30.13 "Hg4 mi
9:00 AM48 °FFog.6 mph99%30.12 "Hg3 mi
8:00 AM48 °FFog.5 mph98%30.10 "Hg3 mi
7:00 AM48 °FFog.6 mph99%30.09 "Hg3 mi
6:00 AM48 °FFog.5 mph99%30.07 "Hg3 mi
5:00 AM49 °FFog.7 mph100%30.06 "Hg2 mi
4:00 AM49 °FLow clouds.7 mph100%30.05 "Hg2 mi
3:00 AM49 °FLow clouds.6 mph100%30.04 "Hg1 mi
2:00 AM49 °FLow clouds.5 mph100%30.04 "Hg2 mi
1:00 AM50 °FLow clouds.5 mph100%30.03 "Hg0 mi
12:00 AM50 °FLow clouds.5 mph100%30.03 "Hg0 mi
11:00 PM
Aug 31
49 °FLight rain. Low clouds.5 mph100%30.03 "Hg0 mi
10:00 PM49 °FLight rain. Low clouds.6 mph100%30.03 "Hg1 mi
9:00 PM49 °FLight rain. Dense fog.7 mph100%30.03 "Hg0 mi
8:00 PM49 °FLight rain. Low clouds.9 mph97%30.01 "Hg2 mi
Weather by CustomWeather, © 2014

See weather overviewHow to use our weather pages